C/2021 A7 ( NEOWISE )

Japanese version
Home page
Updated on August 1, 2021

---------------------------------------------------------------------

* Profile

Discovery Date January 9, 2021
Magnitude 20 mag
Discoverer Near-Earth Object Wide-field Infrared Survey Explorer

* Pictures

* Orbital Elements

Epoch 2021 July 5.0 TT = JDT 2459400.5
T 2021 July 15.32355 TT                                 Rudenko
q   1.9677226            (2000.0)            P               Q
z  +0.0001490      Peri.  356.06241     -0.89453083     -0.15013077
 +/-0.0000020      Node   154.51909     +0.43219156     -0.53096283
e   0.9997069      Incl.   78.14927     +0.11412734     +0.83398994
From 272 observations 2021 Jan. 9-June 11, mean residual 0".5.

* Finding Charts

* Magnitudes Graph

        m1 = 10.0 + 5 log d + 10.0 log r

---------------------------------------------------------------------

The orbital elements are published on M.P.E.C. 2021-N06.
The charts are made with StellaNavigator Ver.10 (AstroArts).
The magnitudes graphs are made with Comet for Windows.

---------------------------------------------------------------------

Copyright(C) Seiichi Yoshida (comet@aerith.net). All rights reserved.